Location: Observatoire de Paris
(48.8363°N, 2.3365°E)
Time: 05:44:31
(UTC+01:00)

Vanguard 2 Rocket - All Passes

Search period start: 31 July 2021 00:00
Search period end: 10 August 2021 00:00
Orbit: 555 x 3325 km, 32.9° (Epoch: 30 July)

Date Brightness Start Highest point End Pass type
(mag) Time Alt. Az. Time Alt. Az. Time Alt. Az.
31 Jul - 10:05:42 10° S 10:07:00 11° S 10:08:23 10° SSE daylight
31 Jul - 12:17:09 10° SSW 12:19:03 12° S 12:21:12 10° SSE daylight
01 Aug - 11:18:22 10° SSW 11:19:45 11° S 11:21:16 10° SSE daylight
02 Aug - 10:20:03 10° S 10:20:34 10° S 10:21:05 10° S daylight
08 Aug - 06:36:10 10° SSW 06:37:29 11° S 06:38:44 10° SSE daylight
09 Aug - 05:36:13 10° SSW 05:38:14 12° S 05:40:02 10° SSE daylight
09 Aug - 07:49:16 10° SSW 07:50:14 11° S 07:51:09 10° S daylight
